Data supplied by UK-AIR on 13/3/2021
All Data GMT hour ending 
Status: R =Ratified P=Provisional,P*=As supplied
,,Bath A4 Roadside,,,,,,,,,,,,,,,,,,,,,,,
Date,time,"Nitric oxide",status,unit,"Nitrogen dioxide",status,unit,"Nitrogen oxides as nitrogen dioxide",status,unit
 
01-01-2020,01:00,4.94166,R,ugm-3,27.36253,R,ugm-3,34.93963,R,ugm-3
01-01-2020,02:00,4.84929,R,ugm-3,18.12881,R,ugm-3,25.56428,R,ugm-3
01-01-2020,03:00,10.84163,R,ugm-3,24.41802,R,ugm-3,41.04162,R,ugm-3
01-01-2020,04:00,8.79800,R,ugm-3,19.59939,R,ugm-3,33.08947,R,ugm-3
01-01-2020,05:00,8.38235,R,ugm-3,15.96711,R,ugm-3,28.81986,R,ugm-3
01-01-2020,06:00,5.61132,R,ugm-3,20.58955,R,ugm-3,29.19345,R,ugm-3
01-01-2020,07:00,5.78451,R,ugm-3,17.54875,R,ugm-3,26.41821,R,ugm-3
01-01-2020,08:00,6.02698,R,ugm-3,16.69664,R,ugm-3,25.93787,R,ugm-3
01-01-2020,09:00,6.33872,R,ugm-3,17.28605,R,ugm-3,27.00528,R,ugm-3
01-01-2020,10:00,12.08859,R,ugm-3,24.10715,R,ugm-3,42.64272,R,ugm-3
01-01-2020,11:00,19.98600,R,ugm-3,26.40787,R,ugm-3,57.05265,R,ugm-3
01-01-2020,12:00,34.42996,R,ugm-3,41.29964,R,ugm-3,94.09151,R,ugm-3
01-01-2020,13:00,65.25759,R,ugm-3,62.29164,R,ugm-3,162.35188,R,ugm-3
01-01-2020,14:00,49.32421,R,ugm-3,51.23136,R,ugm-3,126.86076,R,ugm-3
01-01-2020,15:00,26.46327,R,ugm-3,37.55740,R,ugm-3,78.13385,R,ugm-3
01-01-2020,16:00,27.74487,R,ugm-3,38.74115,R,ugm-3,81.28268,R,ugm-3
01-01-2020,17:00,44.33637,R,ugm-3,40.30648,R,ugm-3,108.28796,R,ugm-3
01-01-2020,18:00,39.45244,R,ugm-3,43.47208,R,ugm-3,103.96498,R,ugm-3
01-01-2020,19:00,19.18933,R,ugm-3,36.96919,R,ugm-3,66.39242,R,ugm-3
01-01-2020,20:00,16.21049,R,ugm-3,26.75317,R,ugm-3,51.60890,R,ugm-3
01-01-2020,21:00,27.22530,R,ugm-3,31.85251,R,ugm-3,73.59739,R,ugm-3
01-01-2020,22:00,10.59916,R,ugm-3,23.88250,R,ugm-3,40.13433,R,ugm-3
01-01-2020,23:00,4.08726,R,ugm-3,17.64277,R,ugm-3,23.90981,R,ugm-3
01-01-2020,24:00,3.70624,R,ugm-3,14.11748,R,ugm-3,19.80031,R,ugm-3
02-01-2020,01:00,2.07835,R,ugm-3,10.32528,R,ugm-3,13.51204,R,ugm-3
02-01-2020,02:00,4.84948,R,ugm-3,11.12551,R,ugm-3,18.56128,R,ugm-3
02-01-2020,03:00,1.48948,R,ugm-3,8.11687,R,ugm-3,10.40071,R,ugm-3
02-01-2020,04:00,2.49402,R,ugm-3,12.39034,R,ugm-3,16.21445,R,ugm-3
02-01-2020,05:00,4.01814,R,ugm-3,13.14693,R,ugm-3,19.30799,R,ugm-3
02-01-2020,06:00,31.34842,R,ugm-3,37.91234,R,ugm-3,85.97924,R,ugm-3
02-01-2020,07:00,29.54718,R,ugm-3,43.39438,R,ugm-3,88.69942,R,ugm-3
02-01-2020,08:00,29.58182,R,ugm-3,41.26112,R,ugm-3,86.61928,R,ugm-3
02-01-2020,09:00,45.34263,R,ugm-3,54.37745,R,ugm-3,123.90184,R,ugm-3
02-01-2020,10:00,38.17233,R,ugm-3,51.98417,R,ugm-3,110.51426,R,ugm-3
02-01-2020,11:00,31.79873,R,ugm-3,44.31569,R,ugm-3,93.07306,R,ugm-3
02-01-2020,12:00,30.72491,R,ugm-3,40.89517,R,ugm-3,88.00604,R,ugm-3
02-01-2020,13:00,34.39666,R,ugm-3,45.93263,R,ugm-3,98.67344,R,ugm-3
02-01-2020,14:00,31.03666,R,ugm-3,41.53723,R,ugm-3,89.12612,R,ugm-3
02-01-2020,15:00,19.67503,R,ugm-3,36.55663,R,ugm-3,66.72458,R,ugm-3
02-01-2020,16:00,25.14801,R,ugm-3,41.65909,R,ugm-3,80.21884,R,ugm-3
02-01-2020,17:00,27.67667,R,ugm-3,37.51519,R,ugm-3,79.95216,R,ugm-3
02-01-2020,18:00,15.69153,R,ugm-3,35.14406,R,ugm-3,59.20407,R,ugm-3
02-01-2020,19:00,16.00328,R,ugm-3,36.74619,R,ugm-3,61.28421,R,ugm-3
02-01-2020,20:00,8.72906,R,ugm-3,22.77811,R,ugm-3,36.16248,R,ugm-3
02-01-2020,21:00,6.26968,R,ugm-3,15.50834,R,ugm-3,25.12173,R,ugm-3
02-01-2020,22:00,3.77567,R,ugm-3,13.94542,R,ugm-3,19.73469,R,ugm-3
02-01-2020,23:00,3.60247,R,ugm-3,12.50420,R,ugm-3,18.02790,R,ugm-3
02-01-2020,24:00,2.84041,R,ugm-3,12.60593,R,ugm-3,16.96117,R,ugm-3
03-01-2020,01:00,3.09455,R,ugm-3,8.11909,R,ugm-3,12.86400,R,ugm-3
03-01-2020,02:00,1.17778,R,ugm-3,6.02977,R,ugm-3,7.83567,R,ugm-3
03-01-2020,03:00,1.87059,R,ugm-3,6.35338,R,ugm-3,9.22157,R,ugm-3
03-01-2020,04:00,3.29085,R,ugm-3,8.06686,R,ugm-3,13.11275,R,ugm-3
03-01-2020,05:00,2.49412,R,ugm-3,9.55502,R,ugm-3,13.37927,R,ugm-3
03-01-2020,06:00,4.60718,R,ugm-3,14.20400,R,ugm-3,21.26825,R,ugm-3
03-01-2020,07:00,8.83332,R,ugm-3,24.99446,R,ugm-3,38.53871,R,ugm-3
03-01-2020,08:00,27.33134,R,ugm-3,41.24658,R,ugm-3,83.15405,R,ugm-3
03-01-2020,09:00,29.51369,R,ugm-3,41.79154,R,ugm-3,87.04524,R,ugm-3
03-01-2020,10:00,46.73001,R,ugm-3,52.59966,R,ugm-3,124.25134,R,ugm-3
03-01-2020,11:00,83.06788,R,ugm-3,71.02807,R,ugm-3,198.39704,R,ugm-3
03-01-2020,12:00,85.87376,R,ugm-3,68.27160,R,ugm-3,199.94285,R,ugm-3
03-01-2020,13:00,77.38684,R,ugm-3,62.25520,R,ugm-3,180.91337,R,ugm-3
03-01-2020,14:00,95.43453,R,ugm-3,64.85907,R,ugm-3,211.18997,R,ugm-3
03-01-2020,15:00,72.88358,R,ugm-3,56.42048,R,ugm-3,168.17374,R,ugm-3
03-01-2020,16:00,75.48161,R,ugm-3,74.18487,R,ugm-3,189.92172,R,ugm-3
03-01-2020,17:00,72.77965,R,ugm-3,63.08290,R,ugm-3,174.67681,R,ugm-3
03-01-2020,18:00,96.57767,R,ugm-3,87.35955,R,ugm-3,235.44324,R,ugm-3
03-01-2020,19:00,67.41038,R,ugm-3,76.11302,R,ugm-3,179.47416,R,ugm-3
03-01-2020,20:00,52.75746,R,ugm-3,71.60876,R,ugm-3,152.50240,R,ugm-3
03-01-2020,21:00,34.67512,R,ugm-3,56.85143,R,ugm-3,110.01921,R,ugm-3
03-01-2020,22:00,13.09410,R,ugm-3,28.42919,R,ugm-3,48.50653,R,ugm-3
03-01-2020,23:00,22.34311,R,ugm-3,45.37704,R,ugm-3,79.63600,R,ugm-3
03-01-2020,24:00,18.08233,R,ugm-3,35.81237,R,ugm-3,63.53822,R,ugm-3
04-01-2020,01:00,62.90956,R,ugm-3,30.60854,R,ugm-3,127.06853,R,ugm-3
04-01-2020,02:00,26.60493,R,ugm-3,33.67888,R,ugm-3,74.47253,R,ugm-3
04-01-2020,03:00,14.68814,R,ugm-3,39.21932,R,ugm-3,61.74082,R,ugm-3
04-01-2020,04:00,7.79441,R,ugm-3,23.68688,R,ugm-3,35.63814,R,ugm-3
04-01-2020,05:00,9.56115,R,ugm-3,22.73586,R,ugm-3,37.39608,R,ugm-3
04-01-2020,06:00,22.06685,R,ugm-3,35.52318,R,ugm-3,69.35853,R,ugm-3
04-01-2020,07:00,25.53103,R,ugm-3,40.01332,R,ugm-3,79.16035,R,ugm-3
04-01-2020,08:00,41.05057,R,ugm-3,57.76822,R,ugm-3,120.71155,R,ugm-3
04-01-2020,09:00,38.27922,R,ugm-3,55.30544,R,ugm-3,113.99943,R,ugm-3
04-01-2020,10:00,34.05292,R,ugm-3,51.18480,R,ugm-3,103.39855,R,ugm-3
04-01-2020,11:00,46.87040,R,ugm-3,63.97351,R,ugm-3,135.84045,R,ugm-3
04-01-2020,12:00,39.38776,R,ugm-3,52.59356,R,ugm-3,112.98729,R,ugm-3
04-01-2020,13:00,41.53556,R,ugm-3,62.72456,R,ugm-3,126.41152,R,ugm-3
04-01-2020,14:00,47.42467,R,ugm-3,60.72646,R,ugm-3,133.44326,R,ugm-3
04-01-2020,15:00,64.46845,R,ugm-3,74.11993,R,ugm-3,172.97017,R,ugm-3
04-01-2020,16:00,30.76195,R,ugm-3,48.13374,R,ugm-3,95.30140,R,ugm-3
04-01-2020,17:00,22.82897,R,ugm-3,44.47605,R,ugm-3,79.47998,R,ugm-3
04-01-2020,18:00,72.74785,R,ugm-3,74.84926,R,ugm-3,186.39440,R,ugm-3
04-01-2020,19:00,31.90513,R,ugm-3,53.03973,R,ugm-3,101.96024,R,ugm-3
04-01-2020,20:00,26.46636,R,ugm-3,45.39783,R,ugm-3,85.97901,R,ugm-3
04-01-2020,21:00,14.13387,R,ugm-3,31.91876,R,ugm-3,53.59039,R,ugm-3
04-01-2020,22:00,13.64888,R,ugm-3,30.21194,R,ugm-3,51.13993,R,ugm-3
04-01-2020,23:00,12.26321,R,ugm-3,30.79176,R,ugm-3,49.59508,R,ugm-3
04-01-2020,24:00,13.09461,R,ugm-3,31.70106,R,ugm-3,51.77918,R,ugm-3
05-01-2020,01:00,10.53153,R,ugm-3,23.88660,R,ugm-3,40.03471,R,ugm-3
05-01-2020,02:00,2.80610,R,ugm-3,11.29601,R,ugm-3,15.59863,R,ugm-3
05-01-2020,03:00,5.85470,R,ugm-3,15.13958,R,ugm-3,24.11665,R,ugm-3
05-01-2020,04:00,7.93329,R,ugm-3,16.10499,R,ugm-3,28.26919,R,ugm-3
05-01-2020,05:00,16.00515,R,ugm-3,14.05641,R,ugm-3,38.59730,R,ugm-3
05-01-2020,06:00,5.02326,R,ugm-3,13.16693,R,ugm-3,20.86916,R,ugm-3
05-01-2020,07:00,5.23112,R,ugm-3,14.49859,R,ugm-3,22.51953,R,ugm-3
05-01-2020,08:00,2.28645,R,ugm-3,11.82660,R,ugm-3,15.33244,R,ugm-3
05-01-2020,09:00,12.57547,R,ugm-3,27.40729,R,ugm-3,46.68942,R,ugm-3
05-01-2020,10:00,20.68198,R,ugm-3,35.10132,R,ugm-3,66.81325,R,ugm-3
05-01-2020,11:00,24.42344,R,ugm-3,41.71563,R,ugm-3,79.16438,R,ugm-3
05-01-2020,12:00,15.34693,R,ugm-3,29.54631,R,ugm-3,53.07793,R,ugm-3
05-01-2020,13:00,19.74661,R,ugm-3,37.44057,R,ugm-3,67.71829,R,ugm-3
05-01-2020,14:00,12.99119,R,ugm-3,29.16556,R,ugm-3,49.08511,R,ugm-3
05-01-2020,15:00,17.35623,R,ugm-3,38.28417,R,ugm-3,64.89669,R,ugm-3
05-01-2020,16:00,18.74196,R,ugm-3,41.64290,R,ugm-3,70.38017,R,ugm-3
05-01-2020,17:00,25.32416,R,ugm-3,54.33604,R,ugm-3,93.16588,R,ugm-3
05-01-2020,18:00,22.37949,R,ugm-3,43.51870,R,ugm-3,77.83344,R,ugm-3
05-01-2020,19:00,9.14580,R,ugm-3,27.02286,R,ugm-3,41.04623,R,ugm-3
05-01-2020,20:00,6.20113,R,ugm-3,27.54514,R,ugm-3,37.05340,R,ugm-3
05-01-2020,21:00,15.20836,R,ugm-3,36.46672,R,ugm-3,59.78588,R,ugm-3
05-01-2020,22:00,6.02791,R,ugm-3,21.31574,R,ugm-3,30.55841,R,ugm-3
05-01-2020,23:00,5.78541,R,ugm-3,24.03003,R,ugm-3,32.90087,R,ugm-3
05-01-2020,24:00,5.92398,R,ugm-3,19.02616,R,ugm-3,28.10948,R,ugm-3
06-01-2020,01:00,5.26597,R,ugm-3,12.71087,R,ugm-3,20.78524,R,ugm-3
06-01-2020,02:00,4.57308,R,ugm-3,11.71604,R,ugm-3,18.72800,R,ugm-3
06-01-2020,03:00,1.10863,R,ugm-3,5.64236,R,ugm-3,7.34223,R,ugm-3
06-01-2020,04:00,1.42043,R,ugm-3,6.22836,R,ugm-3,8.40632,R,ugm-3
06-01-2020,05:00,2.87550,R,ugm-3,10.64785,R,ugm-3,15.05688,R,ugm-3
06-01-2020,06:00,4.12270,R,ugm-3,9.74639,R,ugm-3,16.06777,R,ugm-3
06-01-2020,07:00,14.93179,R,ugm-3,25.89346,R,ugm-3,48.78855,R,ugm-3
06-01-2020,08:00,38.76723,R,ugm-3,45.26427,R,ugm-3,104.70652,R,ugm-3
06-01-2020,09:00,34.50595,R,ugm-3,41.90209,R,ugm-3,94.81047,R,ugm-3
06-01-2020,10:00,21.41032,R,ugm-3,31.54879,R,ugm-3,64.37748,R,ugm-3
06-01-2020,11:00,27.64633,R,ugm-3,35.39457,R,ugm-3,77.78502,R,ugm-3
06-01-2020,12:00,20.54421,R,ugm-3,28.35442,R,ugm-3,59.85510,R,ugm-3
06-01-2020,13:00,22.17250,R,ugm-3,31.81665,R,ugm-3,65.81400,R,ugm-3
06-01-2020,14:00,27.47311,R,ugm-3,31.77625,R,ugm-3,73.90109,R,ugm-3
06-01-2020,15:00,20.19776,R,ugm-3,33.46122,R,ugm-3,64.43069,R,ugm-3
06-01-2020,16:00,21.37567,R,ugm-3,39.47618,R,ugm-3,72.25175,R,ugm-3
06-01-2020,17:00,23.83543,R,ugm-3,42.83400,R,ugm-3,79.38116,R,ugm-3
06-01-2020,18:00,21.34103,R,ugm-3,45.54141,R,ugm-3,78.26386,R,ugm-3
06-01-2020,19:00,19.74738,R,ugm-3,42.55811,R,ugm-3,72.83700,R,ugm-3
06-01-2020,20:00,15.27824,R,ugm-3,33.92818,R,ugm-3,57.35449,R,ugm-3
06-01-2020,21:00,11.81378,R,ugm-3,26.95002,R,ugm-3,45.06424,R,ugm-3
06-01-2020,22:00,9.21544,R,ugm-3,26.03927,R,ugm-3,40.16942,R,ugm-3
06-01-2020,23:00,18.01515,R,ugm-3,37.92513,R,ugm-3,65.54798,R,ugm-3
06-01-2020,24:00,24.00866,R,ugm-3,40.97226,R,ugm-3,77.78502,R,ugm-3
07-01-2020,01:00,28.50201,R,ugm-3,46.40536,R,ugm-3,90.10782,R,ugm-3
07-01-2020,02:00,13.81216,R,ugm-3,31.92218,R,ugm-3,53.10052,R,ugm-3
07-01-2020,03:00,20.68359,R,ugm-3,28.52882,R,ugm-3,60.24321,R,ugm-3
07-01-2020,04:00,5.71657,R,ugm-3,9.73837,R,ugm-3,18.50365,R,ugm-3
07-01-2020,05:00,8.69611,R,ugm-3,16.38896,R,ugm-3,29.72282,R,ugm-3
07-01-2020,06:00,28.47891,R,ugm-3,33.43150,R,ugm-3,77.09855,R,ugm-3
07-01-2020,07:00,34.54194,R,ugm-3,40.88398,R,ugm-3,93.84755,R,ugm-3
07-01-2020,08:00,71.23192,R,ugm-3,66.72346,R,ugm-3,175.94421,R,ugm-3
07-01-2020,09:00,77.22565,R,ugm-3,70.29433,R,ugm-3,188.70535,R,ugm-3
07-01-2020,10:00,47.56879,R,ugm-3,56.21558,R,ugm-3,129.15337,R,ugm-3
07-01-2020,11:00,27.99387,R,ugm-3,30.55956,R,ugm-3,73.48290,R,ugm-3
07-01-2020,12:00,23.10880,R,ugm-3,30.71224,R,ugm-3,66.14524,R,ugm-3
07-01-2020,13:00,25.94976,R,ugm-3,36.03336,R,ugm-3,75.82244,R,ugm-3
07-01-2020,14:00,22.24265,R,ugm-3,37.46380,R,ugm-3,71.56872,R,ugm-3
07-01-2020,15:00,22.55446,R,ugm-3,33.90175,R,ugm-3,68.48478,R,ugm-3
07-01-2020,16:00,24.52928,R,ugm-3,35.76552,R,ugm-3,73.37655,R,ugm-3
07-01-2020,17:00,31.90885,R,ugm-3,47.57990,R,ugm-3,96.50612,R,ugm-3
07-01-2020,18:00,22.48517,R,ugm-3,39.59100,R,ugm-3,74.06778,R,ugm-3
07-01-2020,19:00,15.76387,R,ugm-3,31.71222,R,ugm-3,55.88316,R,ugm-3
07-01-2020,20:00,17.63475,R,ugm-3,35.01147,R,ugm-3,62.05104,R,ugm-3
07-01-2020,21:00,7.24099,R,ugm-3,18.93916,R,ugm-3,30.04185,R,ugm-3
07-01-2020,22:00,6.30555,R,ugm-3,14.63096,R,ugm-3,24.29934,R,ugm-3
07-01-2020,23:00,2.11340,R,ugm-3,10.31821,R,ugm-3,13.55871,R,ugm-3
07-01-2020,24:00,1.97482,R,ugm-3,8.08482,R,ugm-3,11.11283,R,ugm-3
08-01-2020,01:00,1.57067,R,ugm-3,8.29018,R,ugm-3,10.69851,R,ugm-3
08-01-2020,02:00,2.91037,R,ugm-3,6.00575,R,ugm-3,10.46825,R,ugm-3
08-01-2020,03:00,1.45518,R,ugm-3,4.46418,R,ugm-3,6.69543,R,ugm-3
08-01-2020,04:00,1.83630,R,ugm-3,5.73964,R,ugm-3,8.55527,R,ugm-3
08-01-2020,05:00,1.87095,R,ugm-3,5.47396,R,ugm-3,8.34271,R,ugm-3
08-01-2020,06:00,5.37032,R,ugm-3,10.84227,R,ugm-3,19.07665,R,ugm-3
08-01-2020,07:00,15.90308,R,ugm-3,27.15977,R,ugm-3,51.54415,R,ugm-3
08-01-2020,08:00,30.24703,R,ugm-3,34.87033,R,ugm-3,81.24846,R,ugm-3
08-01-2020,09:00,34.99370,R,ugm-3,51.61072,R,ugm-3,105.26697,R,ugm-3
08-01-2020,10:00,51.58971,R,ugm-3,50.66060,R,ugm-3,129.76372,R,ugm-3
08-01-2020,11:00,79.44608,R,ugm-3,65.23118,R,ugm-3,187.04681,R,ugm-3
08-01-2020,12:00,70.63414,R,ugm-3,80.44307,R,ugm-3,188.74723,R,ugm-3
08-01-2020,13:00,,,,,,,,,
08-01-2020,14:00,,,,,,,,,
08-01-2020,15:00,80.17367,R,ugm-3,69.11056,R,ugm-3,192.04181,R,ugm-3
08-01-2020,16:00,73.72929,R,ugm-3,59.80888,R,ugm-3,172.85888,R,ugm-3
08-01-2020,17:00,70.07978,R,ugm-3,75.27073,R,ugm-3,182.72489,R,ugm-3
08-01-2020,18:00,130.37750,R,ugm-3,75.66584,R,ugm-3,275.57521,R,ugm-3
08-01-2020,19:00,48.47146,R,ugm-3,60.75568,R,ugm-3,135.07755,R,ugm-3
08-01-2020,20:00,48.71400,R,ugm-3,58.09886,R,ugm-3,132.79261,R,ugm-3
08-01-2020,21:00,17.04643,R,ugm-3,40.23223,R,ugm-3,66.36973,R,ugm-3
08-01-2020,22:00,5.54356,R,ugm-3,17.37835,R,ugm-3,25.87835,R,ugm-3
08-01-2020,23:00,3.22219,R,ugm-3,11.58539,R,ugm-3,16.52601,R,ugm-3
08-01-2020,24:00,7.17198,R,ugm-3,14.56265,R,ugm-3,25.55952,R,ugm-3
09-01-2020,01:00,1.61779,R,ugm-3,6.52006,R,ugm-3,9.00063,R,ugm-3
09-01-2020,02:00,1.10934,R,ugm-3,2.97653,R,ugm-3,4.67749,R,ugm-3
09-01-2020,03:00,1.38667,R,ugm-3,2.28552,R,ugm-3,4.41172,R,ugm-3
09-01-2020,04:00,1.97601,R,ugm-3,4.41162,R,ugm-3,7.44146,R,ugm-3
09-01-2020,05:00,1.49067,R,ugm-3,3.24228,R,ugm-3,5.52794,R,ugm-3
09-01-2020,06:00,4.02135,R,ugm-3,7.76018,R,ugm-3,13.92616,R,ugm-3
09-01-2020,07:00,15.46140,R,ugm-3,27.85155,R,ugm-3,51.55870,R,ugm-3
09-01-2020,08:00,32.79481,R,ugm-3,45.39126,R,ugm-3,95.67593,R,ugm-3
09-01-2020,09:00,36.81616,R,ugm-3,45.01898,R,ugm-3,101.46964,R,ugm-3
09-01-2020,10:00,38.58417,R,ugm-3,41.03239,R,ugm-3,100.19396,R,ugm-3
09-01-2020,11:00,26.93612,R,ugm-3,39.43838,R,ugm-3,80.73986,R,ugm-3
09-01-2020,12:00,45.03220,R,ugm-3,51.34381,R,ugm-3,120.39221,R,ugm-3
09-01-2020,13:00,31.78947,R,ugm-3,43.26518,R,ugm-3,92.00836,R,ugm-3
09-01-2020,14:00,69.22964,R,ugm-3,61.65432,R,ugm-3,167.80495,R,ugm-3
09-01-2020,15:00,77.86168,R,ugm-3,68.08544,R,ugm-3,187.47167,R,ugm-3
09-01-2020,16:00,83.75504,R,ugm-3,70.05181,R,ugm-3,198.47441,R,ugm-3
09-01-2020,17:00,104.38179,R,ugm-3,82.80756,R,ugm-3,242.85741,R,ugm-3
09-01-2020,18:00,100.01377,R,ugm-3,72.12397,R,ugm-3,225.47628,R,ugm-3
09-01-2020,19:00,38.61884,R,ugm-3,38.21527,R,ugm-3,97.42999,R,ugm-3
09-01-2020,20:00,43.12552,R,ugm-3,50.97183,R,ugm-3,117.09671,R,ugm-3
09-01-2020,21:00,24.68278,R,ugm-3,30.08352,R,ugm-3,67.92991,R,ugm-3
09-01-2020,22:00,24.16277,R,ugm-3,30.56192,R,ugm-3,67.61099,R,ugm-3
09-01-2020,23:00,25.06411,R,ugm-3,35.18622,R,ugm-3,73.61731,R,ugm-3
09-01-2020,24:00,17.50674,R,ugm-3,23.38656,R,ugm-3,50.22986,R,ugm-3
10-01-2020,01:00,11.93213,R,ugm-3,25.01876,R,ugm-3,43.31444,R,ugm-3
10-01-2020,02:00,4.64798,R,ugm-3,9.56804,R,ugm-3,16.69484,R,ugm-3
10-01-2020,03:00,5.68857,R,ugm-3,10.79041,R,ugm-3,19.51276,R,ugm-3
10-01-2020,04:00,6.38230,R,ugm-3,13.18264,R,ugm-3,22.96870,R,ugm-3
10-01-2020,05:00,5.51514,R,ugm-3,14.61861,R,ugm-3,23.07504,R,ugm-3
10-01-2020,06:00,62.22743,R,ugm-3,105.08357,R,ugm-3,200.49763,R,ugm-3
10-01-2020,07:00,64.51673,R,ugm-3,55.10427,R,ugm-3,154.02855,R,ugm-3
10-01-2020,08:00,125.46077,R,ugm-3,73.57731,R,ugm-3,265.94780,R,ugm-3
10-01-2020,09:00,148.70067,R,ugm-3,80.26526,R,ugm-3,308.26977,R,ugm-3
10-01-2020,10:00,123.13678,R,ugm-3,74.90764,R,ugm-3,263.71473,R,ugm-3
10-01-2020,11:00,144.95453,R,ugm-3,93.18697,R,ugm-3,315.44748,R,ugm-3
10-01-2020,12:00,109.08878,R,ugm-3,86.13296,R,ugm-3,253.40009,R,ugm-3
10-01-2020,13:00,75.40827,R,ugm-3,60.84117,R,ugm-3,176.46557,R,ugm-3
10-01-2020,14:00,59.97281,R,ugm-3,48.08825,R,ugm-3,140.04528,R,ugm-3
10-01-2020,15:00,60.25030,R,ugm-3,48.56663,R,ugm-3,140.94914,R,ugm-3
10-01-2020,16:00,57.40602,R,ugm-3,67.81493,R,ugm-3,155.83627,R,ugm-3
10-01-2020,17:00,87.54851,R,ugm-3,81.35825,R,ugm-3,215.59743,R,ugm-3
10-01-2020,18:00,135.97075,R,ugm-3,91.17092,R,ugm-3,299.65650,R,ugm-3
10-01-2020,19:00,160.18187,R,ugm-3,90.57434,R,ugm-3,336.18312,R,ugm-3
10-01-2020,20:00,65.59201,R,ugm-3,65.36523,R,ugm-3,165.93824,R,ugm-3
10-01-2020,21:00,25.56389,R,ugm-3,47.57324,R,ugm-3,86.77066,R,ugm-3
10-01-2020,22:00,27.33290,R,ugm-3,45.71149,R,ugm-3,87.62135,R,ugm-3
10-01-2020,23:00,38.53661,R,ugm-3,43.57933,R,ugm-3,102.66797,R,ugm-3
10-01-2020,24:00,12.59117,R,ugm-3,20.88904,R,ugm-3,40.19523,R,ugm-3
11-01-2020,01:00,5.22904,R,ugm-3,15.17017,R,ugm-3,23.18792,R,ugm-3
11-01-2020,02:00,4.48865,R,ugm-3,16.94362,R,ugm-3,23.82611,R,ugm-3
11-01-2020,03:00,3.64413,R,ugm-3,9.35691,R,ugm-3,14.94451,R,ugm-3
11-01-2020,04:00,2.56825,R,ugm-3,8.50697,R,ugm-3,12.44489,R,ugm-3
11-01-2020,05:00,2.29060,R,ugm-3,6.69899,R,ugm-3,10.21119,R,ugm-3
11-01-2020,06:00,3.15825,R,ugm-3,8.77235,R,ugm-3,13.61492,R,ugm-3
11-01-2020,07:00,3.99119,R,ugm-3,12.49441,R,ugm-3,18.61415,R,ugm-3
11-01-2020,08:00,7.25356,R,ugm-3,19.19251,R,ugm-3,30.31448,R,ugm-3
11-01-2020,09:00,9.57886,R,ugm-3,19.61584,R,ugm-3,34.30322,R,ugm-3
11-01-2020,10:00,14.22947,R,ugm-3,22.37711,R,ugm-3,44.19531,R,ugm-3
11-01-2020,11:00,14.54182,R,ugm-3,22.27045,R,ugm-3,44.56760,R,ugm-3
11-01-2020,12:00,16.79771,R,ugm-3,21.78973,R,ugm-3,47.54586,R,ugm-3
11-01-2020,13:00,13.01476,R,ugm-3,22.69732,R,ugm-3,42.65300,R,ugm-3
11-01-2020,14:00,15.30535,R,ugm-3,29.82178,R,ugm-3,53.28966,R,ugm-3
11-01-2020,15:00,10.65475,R,ugm-3,18.12572,R,ugm-3,34.46277,R,ugm-3
11-01-2020,16:00,17.56124,R,ugm-3,30.45791,R,ugm-3,57.38477,R,ugm-3
11-01-2020,17:00,26.13363,R,ugm-3,34.86425,R,ugm-3,74.93526,R,ugm-3
11-01-2020,18:00,14.50711,R,ugm-3,26.36560,R,ugm-3,48.60953,R,ugm-3
11-01-2020,19:00,10.82828,R,ugm-3,19.34878,R,ugm-3,35.95191,R,ugm-3
11-01-2020,20:00,8.08650,R,ugm-3,19.08538,R,ugm-3,31.48451,R,ugm-3
11-01-2020,21:00,5.13649,R,ugm-3,11.58924,R,ugm-3,19.46509,R,ugm-3
11-01-2020,22:00,5.55296,R,ugm-3,10.63156,R,ugm-3,19.14598,R,ugm-3
11-01-2020,23:00,3.50531,R,ugm-3,11.37801,R,ugm-3,16.75274,R,ugm-3
11-01-2020,24:00,6.14296,R,ugm-3,8.87597,R,ugm-3,18.29505,R,ugm-3
12-01-2020,01:00,3.00955,R,ugm-3,7.01811,R,ugm-3,11.63269,R,ugm-3
12-01-2020,02:00,2.36134,R,ugm-3,5.68903,R,ugm-3,9.30970,R,ugm-3
12-01-2020,03:00,3.29893,R,ugm-3,5.26218,R,ugm-3,10.32047,R,ugm-3
12-01-2020,04:00,1.70156,R,ugm-3,4.30676,R,ugm-3,6.91578,R,ugm-3
12-01-2020,05:00,1.00704,R,ugm-3,3.24374,R,ugm-3,4.78785,R,ugm-3
12-01-2020,06:00,2.15299,R,ugm-3,5.05093,R,ugm-3,8.35213,R,ugm-3
12-01-2020,07:00,1.38902,R,ugm-3,5.21156,R,ugm-3,7.34137,R,ugm-3
12-01-2020,08:00,1.45848,R,ugm-3,6.32863,R,ugm-3,8.56493,R,ugm-3
12-01-2020,09:00,3.12531,R,ugm-3,12.49738,R,ugm-3,17.28944,R,ugm-3
12-01-2020,10:00,10.13988,R,ugm-3,20.57404,R,ugm-3,36.12164,R,ugm-3
12-01-2020,11:00,17.36281,R,ugm-3,22.58582,R,ugm-3,49.20842,R,ugm-3
12-01-2020,12:00,11.98034,R,ugm-3,17.69885,R,ugm-3,36.06844,R,ugm-3
12-01-2020,13:00,19.82832,R,ugm-3,22.58249,R,ugm-3,52.98550,R,ugm-3
12-01-2020,14:00,18.96018,R,ugm-3,27.74390,R,ugm-3,56.81577,R,ugm-3
12-01-2020,15:00,14.20277,R,ugm-3,26.63316,R,ugm-3,48.41044,R,ugm-3
12-01-2020,16:00,17.18918,R,ugm-3,36.89640,R,ugm-3,63.25277,R,ugm-3
12-01-2020,17:00,23.57869,R,ugm-3,46.51666,R,ugm-3,82.67014,R,ugm-3
12-01-2020,18:00,13.54299,R,ugm-3,35.62456,R,ugm-3,56.39019,R,ugm-3
12-01-2020,19:00,39.76082,R,ugm-3,51.92102,R,ugm-3,112.88677,R,ugm-3
12-01-2020,20:00,42.29579,R,ugm-3,56.86504,R,ugm-3,121.71768,R,ugm-3
12-01-2020,21:00,26.28729,R,ugm-3,39.38443,R,ugm-3,79.69104,R,ugm-3
12-01-2020,22:00,10.07043,R,ugm-3,23.97883,R,ugm-3,39.41993,R,ugm-3
12-01-2020,23:00,13.85552,R,ugm-3,28.28278,R,ugm-3,49.52761,R,ugm-3
12-01-2020,24:00,13.71662,R,ugm-3,30.46409,R,ugm-3,51.49594,R,ugm-3
13-01-2020,01:00,15.75116,R,ugm-3,27.57187,R,ugm-3,51.72331,R,ugm-3
13-01-2020,02:00,7.08802,R,ugm-3,21.98219,R,ugm-3,32.85034,R,ugm-3
13-01-2020,03:00,3.96095,R,ugm-3,9.89061,R,ugm-3,15.96399,R,ugm-3
13-01-2020,04:00,6.39312,R,ugm-3,13.55799,R,ugm-3,23.36063,R,ugm-3
13-01-2020,05:00,9.20748,R,ugm-3,28.23984,R,ugm-3,42.35778,R,ugm-3
13-01-2020,06:00,9.06850,R,ugm-3,22.81233,R,ugm-3,36.71717,R,ugm-3
13-01-2020,07:00,58.54567,R,ugm-3,59.33485,R,ugm-3,149.10363,R,ugm-3
13-01-2020,08:00,55.76606,R,ugm-3,62.85188,R,ugm-3,148.35864,R,ugm-3
13-01-2020,09:00,49.06023,R,ugm-3,54.29650,R,ugm-3,129.52114,R,ugm-3
13-01-2020,10:00,31.40967,R,ugm-3,46.02670,R,ugm-3,94.18752,R,ugm-3
13-01-2020,11:00,21.75050,R,ugm-3,33.11309,R,ugm-3,66.46340,R,ugm-3
13-01-2020,12:00,18.48445,R,ugm-3,28.43615,R,ugm-3,56.77858,R,ugm-3
13-01-2020,13:00,17.99802,R,ugm-3,26.73419,R,ugm-3,54.33077,R,ugm-3
13-01-2020,14:00,15.80907,R,ugm-3,26.31239,R,ugm-3,50.55262,R,ugm-3
13-01-2020,15:00,14.45401,R,ugm-3,26.84694,R,ugm-3,49.00944,R,ugm-3
13-01-2020,16:00,17.99802,R,ugm-3,29.28843,R,ugm-3,56.88500,R,ugm-3
13-01-2020,17:00,18.03276,R,ugm-3,23.59455,R,ugm-3,51.24440,R,ugm-3
13-01-2020,18:00,14.41926,R,ugm-3,16.68326,R,ugm-3,38.79249,R,ugm-3
13-01-2020,19:00,13.68961,R,ugm-3,27.16758,R,ugm-3,48.15802,R,ugm-3
13-01-2020,20:00,8.19987,R,ugm-3,19.67430,R,ugm-3,32.24725,R,ugm-3
13-01-2020,21:00,8.37360,R,ugm-3,20.25933,R,ugm-3,33.09866,R,ugm-3
13-01-2020,22:00,9.27697,R,ugm-3,21.37520,R,ugm-3,35.59969,R,ugm-3
13-01-2020,23:00,4.44739,R,ugm-3,13.45503,R,ugm-3,20.27426,R,ugm-3
13-01-2020,24:00,3.75248,R,ugm-3,9.57170,R,ugm-3,15.32543,R,ugm-3
14-01-2020,01:00,2.64213,R,ugm-3,7.09125,R,ugm-3,11.14246,R,ugm-3
14-01-2020,02:00,2.96660,R,ugm-3,7.72927,R,ugm-3,12.27799,R,ugm-3
14-01-2020,03:00,1.70348,R,ugm-3,5.79811,R,ugm-3,8.41007,R,ugm-3
14-01-2020,04:00,2.08589,R,ugm-3,6.43600,R,ugm-3,9.63432,R,ugm-3
14-01-2020,05:00,3.23313,R,ugm-3,7.44480,R,ugm-3,12.40219,R,ugm-3
14-01-2020,06:00,13.59304,R,ugm-3,22.59191,R,ugm-3,43.43428,R,ugm-3
14-01-2020,07:00,31.46215,R,ugm-3,43.57750,R,ugm-3,91.81879,R,ugm-3
14-01-2020,08:00,33.89568,R,ugm-3,48.52234,R,ugm-3,100.49500,R,ugm-3
14-01-2020,09:00,33.58280,R,ugm-3,39.68714,R,ugm-3,91.18005,R,ugm-3
14-01-2020,10:00,26.90796,R,ugm-3,36.77437,R,ugm-3,78.03266,R,ugm-3
14-01-2020,11:00,18.91205,R,ugm-3,31.09666,R,ugm-3,60.09473,R,ugm-3
14-01-2020,12:00,14.18404,R,ugm-3,18.17266,R,ugm-3,39.92121,R,ugm-3
14-01-2020,13:00,17.86911,R,ugm-3,23.11472,R,ugm-3,50.51364,R,ugm-3
14-01-2020,14:00,11.29856,R,ugm-3,17.54031,R,ugm-3,34.86453,R,ugm-3
14-01-2020,15:00,14.01022,R,ugm-3,19.66343,R,ugm-3,41.14546,R,ugm-3
14-01-2020,16:00,9.80367,R,ugm-3,18.23559,R,ugm-3,33.26768,R,ugm-3
14-01-2020,17:00,13.21063,R,ugm-3,23.39118,R,ugm-3,43.64719,R,ugm-3
14-01-2020,18:00,15.53987,R,ugm-3,21.73595,R,ugm-3,45.56341,R,ugm-3
14-01-2020,19:00,9.94273,R,ugm-3,24.94204,R,ugm-3,40.18736,R,ugm-3
14-01-2020,20:00,8.96932,R,ugm-3,23.77318,R,ugm-3,37.52594,R,ugm-3
14-01-2020,21:00,7.19632,R,ugm-3,17.70908,R,ugm-3,28.74327,R,ugm-3
14-01-2020,22:00,6.46625,R,ugm-3,16.32676,R,ugm-3,26.24154,R,ugm-3
14-01-2020,23:00,6.39672,R,ugm-3,16.48660,R,ugm-3,26.29477,R,ugm-3
14-01-2020,24:00,7.16155,R,ugm-3,17.76238,R,ugm-3,28.74327,R,ugm-3
15-01-2020,01:00,3.29292,R,ugm-3,9.85904,R,ugm-3,14.90812,R,ugm-3
15-01-2020,02:00,2.31896,R,ugm-3,6.59603,R,ugm-3,10.15172,R,ugm-3
15-01-2020,03:00,1.70444,R,ugm-3,6.17171,R,ugm-3,8.78514,R,ugm-3
15-01-2020,04:00,2.99146,R,ugm-3,10.74723,R,ugm-3,15.33407,R,ugm-3
15-01-2020,05:00,21.42719,R,ugm-3,30.07899,R,ugm-3,62.93356,R,ugm-3
15-01-2020,06:00,22.22723,R,ugm-3,40.93850,R,ugm-3,75.01978,R,ugm-3
15-01-2020,07:00,61.70753,R,ugm-3,63.99485,R,ugm-3,158.61174,R,ugm-3
15-01-2020,08:00,96.49193,R,ugm-3,83.17686,R,ugm-3,231.12909,R,ugm-3
15-01-2020,09:00,74.43862,R,ugm-3,69.23224,R,ugm-3,183.36986,R,ugm-3
15-01-2020,10:00,71.48194,R,ugm-3,73.76575,R,ugm-3,183.36986,R,ugm-3
15-01-2020,11:00,40.17598,R,ugm-3,49.03723,R,ugm-3,110.63954,R,ugm-3
15-01-2020,12:00,25.00998,R,ugm-3,35.76654,R,ugm-3,74.11465,R,ugm-3
15-01-2020,13:00,30.05372,R,ugm-3,44.05914,R,ugm-3,90.14088,R,ugm-3
15-01-2020,14:00,26.33179,R,ugm-3,29.69331,R,ugm-3,70.06816,R,ugm-3
15-01-2020,15:00,24.48822,R,ugm-3,36.72630,R,ugm-3,74.27438,R,ugm-3